Regional Weather Roundup
Issued by NWS Burlington, VT

Home | Current Version | Previous Version | Text Only | Print | Product List | Glossary On
Versions: 1 2 3 4 5 6 7 8 9 10 11 12 13 14 15 16 17 18 19 20 21 22 23 24 25 26 27 28 29 30 31 32 33 34 35 36 37 38 39 40 41 42 43 44 45 46 47 48 49 50
000
ASUS41 KBTV 260430
RWRBTV
VERMONT REGIONAL WEATHER ROUNDUP
NATIONAL WEATHER SERVICE BURLINGTON VT
1200 AM EDT TUE JUL 26 2016

NOTE: "FAIR" INDICATES FEW OR NO CLOUDS BELOW 12,000 FEET WITH NO
SIGNIFICANT WEATHER AND/OR OBSTRUCTIONS TO VISIBILITY.

* THESE REPORTS ARE NOT UNDER NWS QUALITY CONTROL AND/OR DO NOT
  REPORT WEATHER SUCH AS PRECIPITATION AND FOG.

VTZ001>019-260500-
_____VERMONT_____


CITY           SKY/WX    TMP DP  RH WIND       PRES   REMARKS
BURLINGTON     MOCLDY    76  67  73 S8        29.77S
MONTPELIER     FAIR      74  65  73 SW7       29.83F
MORRISVILLE    MOCLDY    72  66  81 S9        29.78F
ST. JOHNSBURY*   N/A     69  67  93 MISG      29.76S
LYNDONVILLE*   FAIR      68  67  97 CALM      29.81S
MIDDLEBURY*    MOCLDY    75  69  82 S8        29.80R
RUTLAND*       MOCLDY    75  69  81 W6        29.83S
SPRINGFIELD    FAIR      69  67  93 CALM      29.81F
HIGHGATE*      CLOUDY    74  68  83 S3        29.74S
NEWPORT*       MOCLDY    67  65  94 SW3       29.78S
BENNINGTON     FAIR      73  68  84 SW5       29.85F
SUTTON*          N/A     64 N/A N/A MISG        N/A
GALLUP MILLS*    N/A     61 N/A N/A MISG        N/A
UNION VILLAGE*   N/A     66 N/A N/A MISG        N/A
MT. MANSFIELD*   N/A     63 N/A N/A NW30        N/A

_____LAKE CHAMPLAIN_____


CITY           SKY/WX    TMP DP  RH WIND       PRES   REMARKS
BURTON ISLAND*   N/A     77  72  83 S13         N/A
COLCHESTER RF*   N/A     75  72  88 S13         N/A
DIAMOND ISL*     N/A     75  70  83 SW9         N/A

$$

NYZ007-026>031-035-052-083-087-260500-
_____NORTHERN NEW YORK_____


CITY           SKY/WX    TMP DP  RH WIND       PRES   REMARKS
PLATTSBURGH    PTCLDY    76  68  76 SW6       29.75R
SARANAC LAKE   PTCLDY    71  66  84 SW8       29.84R
MASSENA        CLEAR     73  69  87 SW7       29.77R
OGDENSBURG*    CLEAR     72  63  73 W6        29.78S
POTSDAM*       CLEAR     72  72 100 W8        29.79S
STARK FALLS*     N/A     88 N/A N/A SW6         N/A
WATERTOWN      CLEAR     73  61  65 W7        29.82S
FT DRUM        CLEAR     71  64  77 W7        29.83R
ALBANY         CLOUDY    72  70  93 S5        29.85S
GLENS FALLS    CLEAR     72  68  87 S8        29.82S

$$
NHZ002-005-011-260500-
_____NEW HAMPSHIRE_____


CITY           SKY/WX    TMP DP  RH WIND       PRES   REMARKS
LEBANON        CLEAR     70  67  90 CALM      29.79S
KEENE          CLEAR     75  69  81 S7        29.82F
MT WASHINGTON  FOG       54  54 100 W45         N/A  VSB 0
PLYMOUTH       FAIR      67  66  96 CALM      29.76F FOG
WHITEFIELD     MOCLDY    66  63  90 N3        29.79R

$$

_____REGIONAL QUEBEC LOCATIONS_____


CITY           SKY/WX    TMP DP  RH WIND       PRES   REMARKS
MONTREAL       PTCLDY    72  68  88 W5        29.72S
QUEBEC CITY    CLOUDY    64  61  88 NE5       29.70F
SHERBROOKE     MOCLDY    66  66 100 VRB2      29.74S

_____REGIONAL ONTARIO LOCATIONS_____


CITY           SKY/WX    TMP DP  RH WIND       PRES   REMARKS
OTTAWA         PTCLDY    73  61  64 W10       29.76R

______KEY______
VSB  - VISIBILITY IN MILES
WCI  - WIND CHILL INDEX
HX   - HEAT INDEX
$$
NNNN




USA.gov is the U.S. government's official web portal to all federal, state and local government web resources and services.